This demonstration page uses our WeatherBlox Daily Observations layout. Learn more.

Left ArrowRight Arrow

39.92423, -83.80882

Hourly Observations for July 28, 2019

Temp ( °F °C ) Dew Point ( °F °C ) Humidity (%) Winds ( mph kmh ) Pressure ( in mb ) Visibility ( mi km ) Precip ( " mm )
12:56 am 00:56 Clear 71 21.7 65 18.3 81 81 SSW 5 7 30.16 1021 10 16.0934 N/A
1:56 am 01:56 Clear 69 20.6 65 18.3 87 87 SW 6 9 30.16 1021 10 16.0934 N/A
2:56 am 02:56 Clear 69 20.6 65 18.3 87 87 SW 7 11 30.16 1022 10 16.0934 N/A
3:56 am 03:56 Clear 68 20 65 18.3 90 90 SSW 7 11 30.15 1021 10 16.0934 N/A
4:56 am 04:56 Clear 68 20 65 18.3 90 90 SSW 7 11 30.15 1021 10 16.0934 N/A
5:56 am 05:56 Mostly Clear 68 20 65 18.3 90 90 SSW 7 11 30.16 1021 10 16.0934 N/A
6:56 am 06:56 Cloudy 68 20 66 18.9 93 93 SSW 7 11 30.17 1022 10 16.0934 N/A
7:56 am 07:56 Sunny 70 21.1 67 19.4 90 90 SSW 7 11 30.17 1022 10 16.0934 N/A
8:56 am 08:56 Sunny 73 22.8 67 19.4 81 81 SW 7 11 30.18 1022 10 16.0934 N/A
9:56 am 09:56 Sunny 79 26.1 68 20 69 69 W 8 13 30.18 1022 10 16.0934 N/A
10:56 am 10:56 Sunny 81 27.2 68 20 65 65 W 15 24 30.17 1022 10 16.0934 N/A
11:56 am 11:56 Mostly Sunny 82 27.8 67 19.4 60 60 WSW 14 22 30.16 1022 10 16.0934 N/A
12:56 pm 12:56 Mostly Sunny 83 28.3 66 18.9 57 57 WSW 14 22 30.16 1021 10 16.0934 N/A
1:56 pm 13:56 Mostly Sunny 85 29.4 66 18.9 53 53 WSW 15 24 30.14 1021 10 16.0934 N/A
2:56 pm 14:56 Partly Cloudy 85 29.4 66 18.9 53 53 WSW 13 20 30.12 1020 10 16.0934 N/A
3:56 pm 15:56 Mostly Sunny 86 30 66 18.9 51 51 SW 13 20 30.11 1020 10 16.0934 N/A
4:56 pm 16:56 Mostly Cloudy 86 30 66 18.9 51 51 SW 9 15 30.09 1019 10 16.0934 N/A
5:56 pm 17:56 Mostly Cloudy 85 29.4 65 18.3 51 51 W 10 17 30.08 1019 10 16.0934 N/A
6:56 pm 18:56 Mostly Sunny 85 29.4 66 18.9 53 53 W 14 22 30.07 1018 10 16.0934 N/A
7:56 pm 19:56 Mostly Sunny 83 28.3 66 18.9 57 57 W 8 13 30.08 1019 10 16.0934 N/A
8:56 pm 20:56 Clear 78 25.6 66 18.9 67 67 W 6 9 30.08 1019 10 16.0934 N/A
9:56 pm 21:56 Clear 74 23.3 66 18.9 76 76 N N/A 30.09 1019 10 16.0934 N/A
10:56 pm 22:56 Partly Cloudy 72 22.2 66 18.9 82 82 N N/A 30.08 1019 10 16.0934 N/A
11:56 pm 23:56 Clear 70 21.1 66 18.9 87 87 N N/A 30.08 1019 10 16.0934 N/A

Powered by AerisWeather